Wind_Speed
18 22 26 30 29 27 26 26 29 30 32 32 32 33 35 34 36 34 33 32 32 29 30 34 30 29 30 29 26 29 35 36 36 31 37 32 26 23 21 17 15 15 18
10 16 19 24 28 30 32 33 34 36 35 35 35 34 32 30 31 35 36 34 30 31 34 36 26 35 30 29 23 22 35 37 34 42 24 20 21 19 17 13 15 18 18
5 9 13 18 21 23 24 25 26 28 28 29 29 29 29 29 29 31 31 33 35 35 37 38 39 40 40 34 36 30 26 31 30 15 17 19 17 11 13 16 19 18 19
6 4 6 10 12 15 20 23 25 26 27 27 28 29 30 30 30 33 33 35 36 36 34 37 38 38 40 41 41 38 23 21 11 13 17 14 11 13 15 18 18 18 22
5 4 4 5 7 9 11 12 16 19 21 24 26 27 28 29 30 32 32 32 33 36 40 41 42 43 40 40 37 31 28 21 10 12 12 11 13 15 18 18 17 21 22
5 4 3 3 1 4 8 11 13 14 15 17 20 20 22 23 25 25 24 28 31 33 34 36 37 33 29 27 23 20 21 16 13 11 12 14 15 16 16 17 21 23 23
6 5 4 5 6 7 6 7 7 10 12 16 19 21 23 22 20 18 19 24 31 35 38 37 32 26 20 17 23 21 12 12 12 12 13 15 16 13 15 20 21 23 27
4 5 5 7 8 9 9 10 11 11 11 12 13 11 12 13 13 11 20 22 27 32 28 19 14 10 9 10 12 11 12 9 9 10 13 15 11 14 18 20 23 25 29
8 6 7 7 8 8 9 9 10 9 6 6 8 9 6 6 6 12 8 9 11 8 10 19 18 15 13 13 14 12 8 5 7 11 11 9 13 16 19 22 25 30 34
14 12 9 8 7 8 7 7 4 3 8 8 6 3 3 7 9 7 4 9 8 4 6 9 11 12 13 10 6 4 5 6 8 6 9 12 15 18 22 27 30 33 36
13 10 9 9 8 9 13 13 12 6 3 3 3 4 6 8 5 3 5 7 8 7 7 9 9 8 6 5 4 5 3 3 6 8 12 15 18 22 25 27 30 33 37
12 9 8 9 10 11 12 12 10 7 5 5 6 9 10 10 11 12 11 10 10 8 6 5 5 4 4 3 2 2 3 5 8 12 16 19 20 22 26 30 34 38 40
11 8 6 5 4 5 6 6 5 4 3 2 2 4 5 7 8 8 7 6 5 5 4 4 5 4 4 2 1 4 8 11 14 16 19 21 24 28 31 33 36 39 41
13 8 4 4 3 1 1 2 2 3 2 3 3 4 5 5 6 7 7 7 7 5 4 3 1 1 4 7 10 13 15 17 19 21 23 26 29 33 34 38 40 42 44
18 17 15 13 11 11 10 9 8 7 7 6 6 5 4 4 4 5 5 4 4 4 5 6 8 10 13 15 17 20 22 23 25 26 29 31 32 33 39 42 42 41 43
26 24 22 23 22 22 20 17 16 15 13 12 11 10 9 9 10 10 10 11 11 11 12 14 15 17 19 21 23 25 27 28 29 32 34 35 34 38 42 44 43 43 43
31 31 30 28 29 30 28 27 24 22 21 20 20 19 19 19 19 18 18 17 18 19 21 21 23 24 25 27 30 32 33 34 36 36 38 39 39 44 45 43 43 44 44
36 38 38 37 36 37 36 36 35 33 32 30 29 27 28 28 28 27 26 25 26 27 29 29 31 32 33 35 36 38 40 41 42 43 44 44 45 44 46 48 49 48 46
42 41 44 42 43 44 43 44 45 43 41 40 40 37 38 38 38 36 35 34 36 36 37 39 39 41 42 43 44 45 45 46 46 46 47 47 47 48 49 49 50 50 47
44 48 48 49 51 51 48 52 51 51 51 50 50 49 50 49 47 46 46 45 45 45 46 47 48 49 49 50 51 50 50 50 50 51 52 52 51 52 52 53 51 50 50
41 42 43 44 46 49 50 54 58 59 58 58 57 58 59 58 57 55 55 54 54 55 55 55 55 56 56 55 54 53 53 53 52 53 54 54 54 54 54 56 49 49 51
43 39 45 48 49 52 52 50 51 52 53 64 63 65 65 65 65 64 62 62 62 62 62 61 61 62 58 57 57 56 56 56 56 59 62 61 62 61 61 52 51 52 49
42 42 46 50 54 57 55 54 53 52 52 50 51 65 73 71 72 71 70 68 66 67 67 66 66 65 61 60 59 58 60 61 62 62 63 64 65 63 59 52 51 48 50
44 47 50 56 60 58 59 56 53 51 52 50 51 52 54 58 70 79 77 72 69 69 67 66 63 66 67 65 66 69 66 56 53 49 49 48 47 48 47 44 44 46 50
50 54 56 59 60 58 60 59 56 56 56 53 52 44 43 50 48 49 56 69 76 73 75 71 72 74 57 47 45 43 46 47 48 51 51 48 46 46 48 51 48 47 49
55 56 54 56 56 53 55 57 57 56 54 54 53 54 53 48 48 50 44 42 44 42 41 42 47 46 41 43 45 47 50 52 53 54 53 50 50 48 48 46 46 45 44
Wind_Direction
257 250 232 222 215 218 227 236 234 235 236 237 235 233 236 238 243 242 243 241 238 239 254 256 255 268 264 271 271 274 254 269 287 276 297 304 311 314 316 315 318 318 314
255 245 246 246 237 231 227 228 231 235 237 241 242 242 247 249 250 252 251 256 256 255 255 262 259 255 256 259 266 275 273 277 287 282 301 309 302 311 311 307 316 312 309
297 260 248 244 241 241 243 243 242 243 245 247 249 249 249 251 254 255 257 256 260 260 261 263 259 260 266 247 264 269 270 290 286 308 307 303 305 300 303 304 308 310 307
349 316 261 253 253 250 245 243 243 242 242 244 247 249 249 249 252 254 254 255 256 259 260 259 262 263 268 271 277 285 298 289 307 316 307 304 288 292 294 299 309 305 306
291 1 355 263 257 258 250 244 245 249 252 252 252 252 255 256 256 257 259 261 261 261 260 257 262 267 271 270 279 287 287 320 313 308 289 273 276 290 303 304 303 308 315
251 268 317 347 319 265 250 242 244 242 246 250 254 255 257 259 257 258 264 268 272 272 268 268 268 270 271 270 260 280 297 304 295 280 265 273 290 303 301 307 313 317 317
261 249 262 307 312 294 289 277 263 262 256 254 253 254 256 264 271 276 276 282 280 278 273 267 262 265 278 273 267 266 280 264 254 254 264 286 299 301 316 321 323 321 323
15 334 327 317 313 313 302 286 277 264 259 270 269 267 259 260 267 283 288 286 288 283 275 263 236 222 235 241 236 226 235 228 244 271 285 293 302 321 317 318 318 325 330
25 4 345 333 321 310 297 283 268 265 233 254 266 269 290 287 296 294 295 307 341 327 227 201 187 184 191 204 203 201 206 236 267 281 291 315 320 316 315 317 326 329 328
36 38 32 15 353 327 305 289 274 241 245 273 289 254 225 246 278 261 309 15 22 71 152 155 163 176 174 174 181 214 252 276 295 309 328 324 321 323 324 328 329 330 332
40 35 26 27 30 37 44 40 47 34 350 350 5 314 293 276 268 294 35 62 79 110 115 123 130 137 155 189 219 253 271 340 343 330 321 322 323 323 327 330 333 334 334
13 26 41 45 49 54 55 50 51 62 74 85 97 99 97 90 88 86 91 92 93 92 114 143 144 147 151 141 105 41 5 327 318 319 316 316 322 328 330 330 328 327 330
346 346 4 27 37 38 42 48 60 71 86 98 103 103 89 86 88 91 89 91 94 97 95 102 109 109 92 67 329 303 301 302 305 306 308 313 319 323 323 323 326 327 328
316 303 295 314 340 28 87 93 83 111 93 93 104 112 118 124 121 120 123 121 121 120 125 127 113 302 287 284 286 289 291 295 298 301 303 307 308 310 318 320 319 323 325
299 290 284 282 283 281 272 253 243 234 236 242 237 234 221 203 187 182 182 187 208 234 253 263 270 277 282 286 290 292 294 294 294 295 296 299 308 314 313 314 318 320 323
286 283 276 275 278 281 273 262 260 256 250 245 242 238 232 233 235 237 242 248 254 262 268 273 277 280 284 286 287 288 288 288 288 289 293 299 299 303 307 314 317 316 319
271 272 273 273 274 275 271 263 255 252 251 253 254 251 249 251 254 256 256 261 266 269 272 276 279 283 287 289 290 290 290 290 291 293 295 301 305 305 310 314 317 317 314
279 274 268 269 266 268 268 268 263 253 253 254 251 250 254 256 256 258 262 266 270 272 276 279 282 285 286 287 289 290 292 294 296 297 298 300 303 309 309 307 309 311 312
278 279 282 281 279 259 263 268 267 264 260 259 260 260 258 258 260 263 265 268 271 275 278 281 283 286 289 293 295 296 297 297 297 299 299 299 299 302 305 304 304 310 309
279 276 276 279 280 280 272 258 258 263 262 260 260 260 261 263 265 265 266 268 271 273 276 278 281 284 287 291 293 294 295 294 294 295 295 296 297 299 298 298 301 301 304
287 281 278 274 276 276 274 272 267 255 254 257 258 260 262 263 263 264 266 269 271 272 273 275 278 283 286 288 290 291 290 290 291 292 293 294 294 294 294 297 300 298 298
292 281 276 272 273 274 274 272 268 268 272 254 252 257 259 262 262 262 262 264 267 270 272 276 279 281 284 288 288 288 289 290 291 291 292 292 289 291 294 295 293 294 297
291 278 271 269 268 270 271 271 271 271 272 271 273 264 252 255 259 262 263 265 265 267 270 273 278 280 281 282 284 286 285 284 284 285 290 295 296 295 296 295 297 295 293
287 278 274 270 269 270 271 271 272 269 271 274 275 270 272 272 268 260 257 260 264 266 270 274 274 274 277 276 277 277 290 291 291 290 289 291 292 292 293 293 293 292 293
288 284 280 274 274 273 272 271 270 272 272 272 269 273 269 269 269 267 273 270 262 259 261 269 269 273 278 286 278 272 278 282 283 287 288 289 292 295 294 291 290 291 291
288 289 283 275 274 273 272 270 267 270 276 273 275 277 274 275 273 266 260 267 273 272 268 271 274 268 270 275 278 280 282 285 286 287 288 290 290 290 289 287 287 289 288
Height
5677 5678 5680 5683 5686 5690 5695 5698 5701 5705 5707 5710 5712 5714 5716 5717 5720 5721 5722 5724 5725 5726 5727 5728 5728 5729 5730 5728 5728 5726 5724 5722 5718 5718 5717 5715 5714 5710 5708 5706 5705 5704 5702
5675 5676 5677 5680 5682 5684 5687 5690 5693 5697 5699 5703 5705 5706 5707 5710 5712 5713 5714 5716 5717 5719 5720 5720 5721 5719 5720 5720 5719 5718 5717 5714 5713 5712 5710 5711 5709 5708 5706 5704 5703 5701 5698
5674 5674 5675 5677 5679 5681 5683 5685 5688 5691 5693 5695 5698 5700 5701 5703 5705 5705 5707 5708 5708 5710 5711 5711 5711 5710 5710 5712 5711 5711 5710 5709 5707 5707 5707 5707 5705 5703 5702 5701 5699 5698 5696
5673 5672 5673 5675 5676 5677 5678 5680 5683 5685 5687 5689 5691 5694 5695 5696 5696 5698 5699 5701 5701 5701 5701 5701 5703 5704 5704 5704 5702 5702 5704 5703 5704 5705 5704 5701 5701 5701 5700 5699 5697 5695 5693
5673 5672 5672 5672 5674 5675 5677 5677 5680 5681 5683 5685 5686 5687 5689 5690 5691 5692 5692 5692 5692 5692 5693 5694 5695 5695 5696 5697 5698 5699 5700 5699 5700 5699 5700 5699 5698 5697 5696 5695 5692 5691 5688
5671 5673 5674 5674 5675 5676 5676 5677 5678 5680 5681 5682 5683 5683 5683 5684 5684 5683 5684 5684 5683 5684 5684 5686 5686 5687 5688 5690 5693 5695 5696 5696 5697 5697 5697 5697 5696 5695 5694 5692 5689 5687 5685
5671 5672 5674 5674 5675 5676 5675 5675 5676 5677 5678 5678 5677 5676 5676 5677 5678 5679 5679 5678 5677 5675 5674 5674 5675 5679 5683 5685 5688 5690 5691 5692 5693 5694 5695 5695 5694 5692 5691 5689 5687 5684 5681
5672 5673 5673 5674 5675 5674 5674 5675 5675 5675 5674 5674 5674 5674 5674 5674 5675 5676 5675 5672 5670 5664 5661 5663 5669 5673 5677 5680 5682 5685 5687 5688 5690 5692 5693 5692 5691 5689 5688 5686 5684 5681 5677
5675 5675 5675 5675 5674 5674 5674 5674 5674 5674 5674 5674 5674 5673 5672 5673 5673 5673 5671 5668 5664 5662 5660 5661 5663 5668 5673 5677 5680 5682 5684 5686 5688 5690 5689 5688 5688 5687 5685 5682 5679 5676 5671
5679 5677 5677 5676 5675 5674 5673 5672 5672 5672 5673 5672 5671 5671 5671 5672 5672 5671 5669 5666 5664 5663 5663 5664 5667 5670 5673 5677 5680 5683 5684 5685 5686 5687 5686 5686 5685 5683 5681 5677 5674 5669 5664
5682 5680 5679 5678 5676 5675 5673 5671 5670 5670 5670 5670 5670 5670 5670 5670 5670 5670 5668 5668 5667 5668 5668 5670 5672 5673 5675 5678 5680 5682 5683 5683 5684 5684 5684 5683 5681 5679 5676 5672 5668 5664 5659
5686 5684 5682 5681 5679 5678 5677 5676 5675 5674 5674 5674 5674 5674 5673 5673 5672 5671 5671 5672 5672 5672 5673 5674 5675 5676 5677 5678 5679 5680 5680 5681 5682 5681 5680 5679 5676 5674 5671 5667 5663 5658 5652
5689 5687 5685 5682 5681 5679 5678 5678 5678 5678 5678 5677 5676 5676 5674 5674 5674 5674 5674 5674 5674 5674 5674 5675 5676 5677 5677 5678 5678 5679 5679 5679 5678 5677 5675 5673 5671 5668 5665 5661 5656 5650 5645
5688 5687 5686 5685 5683 5681 5679 5678 5678 5678 5678 5678 5677 5676 5675 5674 5675 5675 5675 5675 5675 5675 5675 5676 5676 5676 5676 5677 5677 5677 5676 5674 5673 5672 5670 5668 5664 5661 5657 5652 5648 5643 5638
5686 5686 5685 5685 5683 5681 5681 5679 5678 5677 5676 5676 5676 5675 5675 5674 5674 5674 5674 5674 5674 5674 5674 5674 5674 5674 5673 5673 5672 5671 5670 5669 5668 5666 5663 5660 5657 5654 5649 5644 5640 5635 5631
5680 5680 5681 5680 5680 5680 5679 5677 5676 5676 5675 5674 5673 5673 5673 5672 5672 5672 5671 5671 5671 5671 5670 5670 5669 5669 5668 5667 5666 5665 5664 5662 5660 5658 5655 5652 5649 5645 5641 5636 5632 5628 5623
5673 5672 5673 5674 5674 5673 5673 5674 5672 5672 5672 5671 5671 5670 5669 5669 5668 5667 5666 5666 5666 5666 5665 5664 5663 5662 5662 5660 5659 5657 5655 5653 5650 5648 5644 5642 5639 5636 5632 5627 5623 5619 5614
5665 5664 5664 5665 5665 5665 5665 5665 5665 5665 5665 5665 5664 5663 5663 5662 5661 5660 5660 5660 5659 5659 5657 5656 5655 5654 5653 5651 5650 5648 5645 5643 5639 5636 5633 5630 5627 5624 5621 5617 5613 5609 5605
5654 5653 5651 5651 5651 5652 5653 5654 5654 5655 5655 5654 5654 5655 5653 5651 5650 5651 5651 5650 5649 5648 5647 5645 5644 5642 5641 5640 5638 5636 5634 5631 5628 5625 5622 5619 5616 5613 5609 5605 5601 5597 5594
5642 5641 5640 5638 5636 5637 5636 5637 5639 5640 5640 5640 5640 5639 5638 5638 5639 5638 5637 5638 5637 5635 5633 5632 5630 5629 5628 5627 5625 5623 5621 5618 5615 5612 5609 5606 5603 5600 5596 5593 5589 5585 5582
5628 5627 5625 5623 5622 5620 5620 5620 5618 5618 5621 5622 5623 5622 5621 5622 5621 5622 5623 5623 5622 5621 5618 5617 5616 5615 5614 5613 5611 5609 5607 5604 5601 5598 5595 5592 5589 5586 5582 5579 5575 5572 5569
5613 5612 5610 5608 5606 5604 5603 5601 5601 5601 5601 5600 5602 5602 5602 5604 5604 5604 5604 5604 5604 5604 5603 5602 5601 5600 5599 5598 5596 5594 5592 5589 5586 5583 5580 5577 5573 5570 5567 5563 5561 5558 5556
5597 5595 5594 5592 5591 5588 5586 5585 5584 5584 5583 5583 5582 5580 5579 5583 5584 5585 5586 5586 5586 5585 5585 5586 5585 5584 5583 5582 5580 5578 5575 5571 5568 5565 5563 5560 5556 5553 5551 5548 5546 5544 5541
5581 5579 5578 5576 5573 5571 5570 5569 5568 5567 5567 5566 5565 5564 5562 5561 5562 5561 5562 5564 5566 5568 5568 5569 5568 5566 5565 5564 5562 5559 5557 5554 5552 5550 5547 5544 5541 5537 5534 5532 5530 5529 5527
5564 5562 5560 5557 5556 5554 5552 5552 5551 5551 5550 5549 5548 5545 5543 5542 5541 5541 5541 5542 5543 5547 5548 5547 5547 5547 5547 5544 5544 5542 5540 5538 5535 5533 5531 5528 5525 5522 5520 5517 5515 5512 5511
5547 5544 5541 5538 5536 5535 5534 5534 5533 5533 5533 5532 5531 5530 5528 5527 5524 5523 5523 5525 5526 5528 5530 5530 5531 5531 5529 5529 5527 5526 5524 5522 5520 5518 5516 5513 5511 5508 5505 5501 5499 5496 5495